Skip Page Navigation
NASA JPL Caltech
NASA Logo - Jet Propulsion Laboratory + View the NASA Portal
+ Center for Near-Earth Object Studies
JPL Home Earth Solar System Stars & Galaxies Technology
JPL Solar System Dynamics
BODIES ORBITS EPHEMERIDES TOOLS PHYSICAL DATA DISCOVERY FAQ SITE MAP
JPL Small-Body Database Browser
Search: [ help ]  
233752 (2008 TY8)
Classification: Main-belt Asteroid          SPK-ID: 2233752
Ephemeris | Orbit Diagram | Orbital Elements | Mission Design | Physical Parameters | Discovery Circumstances | Close-Approach Data ]

[ show orbit diagram ]
Orbital Elements at Epoch 2459000.5 (2020-May-31.0) TDB
Reference: JPL 22 (heliocentric ecliptic J2000)
 Element Value Uncertainty (1-sigma)   Units 
e .1876532618385746 5.92e-08  
a 3.039073462104739 3.4601e-08 au
q 2.468781413973735 1.7949e-07 au
i 6.230942002588736 6.536e-06 deg
node 108.1348691240424 5.9924e-05 deg
peri 268.9103317410178 6.2084e-05 deg
M 77.49031729426966 1.8011e-05 deg
tp 2458583.961486738849
(2019-Apr-10.46148674)
9.3725e-05 TDB
period 1935.130349312729
5.30
3.3048e-05
9.048e-08
d
yr
n .1860339796375245 3.1771e-09 deg/d
Q 3.609365510235743 4.1094e-08 au
  Orbit Determination Parameters
   # obs. used (total)      262  
   data-arc span      9084 days (24.87 yr)  
   first obs. used      1995-04-02  
   last obs. used      2020-02-14  
   planetary ephem.      DE431  
   SB-pert. ephem.      SB431-N16  
   condition code      0  
   norm. resid. RMS      .60923  
   source      ORB  
   producer      Otto Matic  
   solution date      2020-Nov-12 01:51:42  

Additional Information
 Earth MOID = 1.48028 au 
 Jupiter MOID = 1.89161 au 
 T_jup = 3.205 
[ show covariance matrix ]

Ephemeris | Orbit Diagram | Orbital Elements | Mission Design | Physical Parameters | Discovery Circumstances | Close-Approach Data ]

Physical Parameter Table
Parameter Symbol Value Units Sigma Reference Notes
absolute magnitude H 15.6   n/a MPO454691  

233752 (2008 TY8)          Discovered 2008-Oct-06 by Tucker, R. A. at Goodricke-Pigott
Reference: 20100228/Numbers.arcLast Updated: 2010-03-03

[ hide close-approach data ]
Close-Approach Data   ...sorted by Date/Time (TDB)
Date/Time (TDB) Time Uncertainty
(days_HH:MM)
Body Nominal Distance (au) Minimum Distance (au) Maximum Distance (au) V-relative (km/s) V-infinity (km/s) JD (TDB) Time Uncertainty (minutes) Semi-major axis (km) Semi-minor axis (km) range-LOV angle (deg) N-sigma BP Orbit Ref. Reference Modified
1910-Dec-29 04:14 00:06 Jupiter 1.91220134622941 1.91220024651336 1.91220244595198 1.86664055314081 1.61196570418718 2419034.676532374 5.5375109836675 284.052677589631 44.2352037028981 78.6394842549444 1346420.75122552 T 22 CATAB v2.0f-lin.ifort 2020-Nov-12 01:51:43 2020-Nov-12 01:51
1958-Nov-02 12:09 00:03 Jupiter 1.94278652031426 1.94278558876587 1.94278745186232 2.08975848546199 1.86952504368608 2436510.006356939 2.98817691930108 132.339461605905 28.6914162229868 84.1383026093859 1146138.79969241 T 22 CATAB v2.0f-lin.ifort 2020-Nov-12 01:51:43 2020-Nov-12 01:51
1968-Feb-25 01:52 00:02 Jupiter 1.9960630884906 1.99606225437442 1.99606392260723 2.61425823799398 2.44655942176625 2439911.577581465 2.4317892658136 130.401625727842 18.6190591646758 -89.4671740959696 1637138.87162246 T 22 CATAB v2.0f-lin.ifort 2020-Nov-12 01:51:43 2020-Nov-12 01:51
2006-Sep-05 03:22 < 00:01 Jupiter 1.97994706682961 1.97994642361107 1.97994771004792 2.38900319730247 2.2026654544772 2453983.640587097 0.560909997963516 102.824188502898 17.0662628138926 89.2401107509283 1828641.11576996 T 22 CATAB v2.0f-lin.ifort 2020-Nov-12 01:51:43 2020-Nov-12 01:51
2015-Dec-27 13:33 < 00:01 Jupiter 1.95779777903157 1.95779711974174 1.95779843832107 2.29570665107019 2.09880635695833 2457384.064793335 0.334702487613209 63.7412489085003 15.360245309576 -80.0248837054873 1658165.94733072 T 22 CATAB v2.0f-lin.ifort 2020-Nov-12 01:51:43 2020-Nov-12 01:51
2063-Oct-29 12:54 00:03 Jupiter 1.92522305913891 1.9252222240997 1.92522389417889 2.02577523624633 1.79550657908248 2474857.037720365 2.61168820952019 175.347049438949 19.281242145037 -80.0452521859045 1606153.28775367 T 22 CATAB v2.0f-lin.ifort 2020-Nov-12 01:51:43 2020-Nov-12 01:51
2111-Sep-03 12:41 00:05 Jupiter 1.89842186420071 1.8984209563363 1.89842277207527 1.81925110688069 1.55477675659776 2492332.028443101 5.15985091103934 379.803249165735 31.8779238939445 -79.5830118831181 1677974.50127644 T 22 CATAB v2.0f-lin.ifort 2020-Nov-12 01:51:43 2020-Nov-12 01:51
2159-Jul-08 21:08 00:08 Jupiter 1.88625803596624 1.88625725263902 1.88625881931372 1.72584380938896 1.44237256264091 2509807.380795067 7.72199378028429 586.532830017448 48.5264603660678 -86.5877113455948 1674714.85646342 T 22 CATAB v2.0f-lin.ifort 2020-Nov-12 01:51:43 2020-Nov-12 01:51
Ephemeris | Orbit Diagram | Orbital Elements | Mission Design | Physical Parameters | Discovery Circumstances | Close-Approach Data ]
ABOUT SSD CREDITS/AWARDS PRIVACY/COPYRIGHT GLOSSARY LINKS
FirstGov 2021-Jan-21 00:03 UT
(server date/time)  
NASA Home Page
Site Manager:   Ryan S. Park
Webmaster  Alan B. Chamberlin